Flag for Switzerland Weather past 2 weeks in Aarau, Aargau, Switzerland

Now
42 °F

Quite cool.


Feels Like: 41 °F
Forecast: 36 / 49 °F
Wind: 3 mph from Southwest

Location: Wynau

Current Time: Mar 27, 2015 at 12:34:00 AM

Latest Report: Mar 26, 2015 at 11:00 PM


Visibility: N/A

Pressure: 29.95 "Hg

Humidity: 76%

Dew point: 35 °F

Location of AarauLocation

Historic Weather in Aarau — Graph

°F

Aarau temperature yesterday

Maximum temperature yesterday: 45 °F (at 3:00 PM)
Minimum temperature yesterday: 39 °F (at 6:00 AM)
Average temperature yesterday: 42 °F

Past Weeks' High & Low Weather Summary

 TemperatureHumidityPressure
High64 °F (Mar 18, 4:00 PM)100% (Mar 24, 3:00 AM)30.42 "Hg (Mar 24, 3:00 AM)
Low26 °F (Mar 13, 7:00 AM)30% (Mar 24, 4:00 PM)29.61 "Hg (Mar 25, 1:00 PM)
Average43 °F75%30.08 "Hg
* Reported Mar 11 11:00 PM — Mar 26 11:00 PM, Aarau, Weather by CustomWeather, © 2015

Note: Actual official high and low records may vary slightly from our data, if they occured in-between our weather recording intervals... More about our weather records

Advertising

Aarau weather history for previous 24 hours

 ConditionsComfort  
Time TempWeatherWind HumidityBarometerVisibility
11:00 PM
Thu, Mar 26
42 °FQuite cool.3 mph76%29.95 "HgN/A
9:00 PM42 °FQuite cool.3 mph84%29.93 "HgN/A
8:00 PM43 °FQuite cool.2 mph77%29.92 "HgN/A
7:00 PM43 °FQuite cool.1 mph87%29.90 "HgN/A
6:00 PM44 °FQuite cool.1 mph87%29.89 "HgN/A
5:00 PM44 °FQuite cool.No wind86%29.88 "HgN/A
4:00 PM45 °FQuite cool.2 mph73%29.87 "HgN/A
3:00 PM45 °FQuite cool.2 mph75%29.87 "HgN/A
2:00 PM44 °FQuite cool.1 mph76%29.87 "HgN/A
1:00 PM43 °FQuite cool.1 mph80%29.88 "HgN/A
12:00 PM43 °FQuite cool.1 mph81%29.88 "HgN/A
11:00 AM42 °FQuite cool.3 mph81%29.88 "HgN/A
10:00 AM41 °FQuite cool.2 mph83%29.89 "HgN/A
9:00 AM40 °FQuite cool.3 mph93%29.89 "HgN/A
8:00 AM40 °FQuite cool.1 mph89%29.88 "HgN/A
7:00 AM39 °FChilly.2 mph95%29.87 "HgN/A
6:00 AM39 °FChilly.2 mph97%29.86 "HgN/A
5:00 AM39 °FChilly.3 mph95%29.85 "HgN/A
4:00 AM40 °FChilly.6 mph94%29.83 "HgN/A
3:00 AM40 °FChilly.2 mph100%29.81 "HgN/A
2:00 AM39 °FChilly.No wind96%29.80 "HgN/A
1:00 AM40 °FChilly.1 mph90%29.79 "HgN/A
12:00 AM40 °FQuite cool.2 mph94%29.78 "HgN/A
Weather by CustomWeather, © 2015

See weather overviewHow to use our weather pages